Tracking 29528 objects as of 12-Sep-2024
HD Live streaming from Space Station
objects crossing your sky now

THOR ABLESTAR DEB

Track THOR ABLESTAR DEB now!
10-day predictions


NORAD ID: 410
Int'l Code: 1961-015EK
Perigee: 977.9 km
Apogee: 989.7 km
Inclination: 66.7 °
Period: 104.6 minutes
Semi major axis: 7354 km
RCS: 0.1102 m2 (medium)
Launch date: June 29, 1961
Source: United States (US)
Launch site: AIR FORCE EASTERN TEST RANGE (AFETR)

Note: This is SATELLITE DEBRIS
Your satellite tracking list
Your tracking list is empty




NASA's NSSDC Master Catalog

Two Line Element Set (TLE):
1 00410U 61015EK  24255.90968096  .00000235  00000-0  31629-3 0  9997
2 00410  66.6930 138.6401 0008012  60.7028  32.8393 13.76412959171536
Source of the keplerian elements: AFSPC